When you browse on this site, cookies collect data to enhance your experience and personalize the content and advertising you see.
Visit our Privacy Policy to learn more. By continuing to use the site, you agree to this use of cookies and data.
  • En España
  • Lista de países
  • Para 7 días
  • Temperatura del agua
  • El tiempo en el mapa
  • Informadores
  • user-avatar
    Iniciar sesión

    Tiempo cada hora Paiporta

    Hoy, 24 Febrero, Lunes

    Tiempo Temperatura Precipitaciones Viento Presión Humedad
    00:00 +14°C° 0 mm 1 mps 770 mmHg 56%
    01:00 +14°C° 0 mm 1 mps 770 mmHg 54%
    02:00 +13°C° 0 mm 1 mps 769 mmHg 52%
    03:00 +13°C° 0 mm 1 mps 769 mmHg 51%
    04:00 +13°C° 0 mm 1 mps 769 mmHg 49%
    05:00 +13°C° 0 mm 1 mps 768 mmHg 47%
    06:00 +13°C° 0 mm 2 mps 768 mmHg 45%
    07:00 +15°C° 0 mm 1 mps 768 mmHg 42%
    08:00 +18°C° 0 mm 1 mps 768 mmHg 39%
    09:00 +20°C° 0 mm 1 mps 768 mmHg 36%
    10:00 +21°C° 0 mm 1 mps 768 mmHg 33%
    11:00 +23°C° 0 mm 1 mps 767 mmHg 30%
    12:00 +25°C° 0 mm 1 mps 767 mmHg 27%
    13:00 +25°C° 0 mm 2 mps 766 mmHg 27%
    14:00 +26°C° 0 mm 2 mps 765 mmHg 27%
    15:00 +26°C° 0 mm 2 mps 764 mmHg 27%
    16:00 +23°C° 0 mm 2 mps 764 mmHg 34%
    17:00 +20°C° 0 mm 2 mps 764 mmHg 41%
    18:00 +18°C° 0 mm 1 mps 764 mmHg 48%
    19:00 +17°C° 0 mm 2 mps 764 mmHg 48%
    20:00 +16°C° 0 mm 2 mps 764 mmHg 48%
    21:00 +16°C° 0 mm 2 mps 763 mmHg 48%
    22:00 +15°C° 0 mm 2 mps 763 mmHg 46%
    23:00 +15°C° 0 mm 2 mps 763 mmHg 45%

    Mañana, 25 Febrero, Martes

    Tiempo Temperatura Precipitaciones Viento Presión Humedad
    00:00 +15°C° 0 mm 2 mps 763 mmHg 43%
    01:00 +14°C° 0 mm 3 mps 763 mmHg 43%
    02:00 +14°C° 0 mm 3 mps 762 mmHg 42%
    03:00 +13°C° 0 mm 3 mps 762 mmHg 42%
    04:00 +13°C° 0 mm 3 mps 762 mmHg 44%
    05:00 +13°C° 0 mm 3 mps 761 mmHg 46%
    06:00 +13°C° 0 mm 3 mps 761 mmHg 49%
    07:00 +14°C° 0 mm 4 mps 761 mmHg 48%
    08:00 +17°C° 0 mm 4 mps 761 mmHg 47%
    09:00 +18°C° 0 mm 4 mps 761 mmHg 47%
    10:00 +20°C° 0 mm 5 mps 761 mmHg 40%
    11:00 +22°C° 0 mm 5 mps 761 mmHg 34%
    12:00 +24°C° 0 mm 6 mps 761 mmHg 28%
    13:00 +24°C° 0 mm 6 mps 760 mmHg 27%
    14:00 +24°C° 0 mm 6 mps 760 mmHg 25%
    15:00 +24°C° 0 mm 6 mps 759 mmHg 23%
    16:00 +23°C° 0 mm 5 mps 759 mmHg 28%
    17:00 +21°C° 0 mm 4 mps 759 mmHg 33%
    18:00 +20°C° 0 mm 3 mps 760 mmHg 38%
    19:00 +18°C° 0 mm 3 mps 760 mmHg 42%
    20:00 +17°C° 0 mm 3 mps 760 mmHg 45%
    21:00 +16°C° 0 mm 3 mps 761 mmHg 49%
    22:00 +14°C° 0 mm 3 mps 761 mmHg 51%
    23:00 +14°C° 0 mm 4 mps 761 mmHg 53%

    Pasado mañana, 26 Febrero, Miércoles

    Tiempo Temperatura Precipitaciones Viento Presión Humedad
    00:00 +13°C° 0 mm 4 mps 761 mmHg 55%
    01:00 +13°C° 0 mm 4 mps 761 mmHg 59%
    02:00 +12°C° 0 mm 4 mps 761 mmHg 62%
    03:00 +12°C° 0 mm 3 mps 761 mmHg 65%
    04:00 +11°C° 0 mm 3 mps 761 mmHg 68%
    05:00 +11°C° 0 mm 3 mps 761 mmHg 70%
    06:00 +10°C° 0 mm 3 mps 761 mmHg 73%
    07:00 +11°C° 0 mm 3 mps 762 mmHg 67%
    08:00 +13°C° 0 mm 3 mps 762 mmHg 62%
    09:00 +14°C° 0 mm 4 mps 762 mmHg 56%
    10:00 +17°C° 0 mm 3 mps 762 mmHg 46%
    11:00 +18°C° 0 mm 3 mps 762 mmHg 36%
    12:00 +20°C° 0 mm 3 mps 762 mmHg 26%
    13:00 +20°C° 0 mm 3 mps 762 mmHg 25%
    14:00 +21°C° 0 mm 4 mps 761 mmHg 25%
    15:00 +21°C° 0 mm 4 mps 761 mmHg 24%
    16:00 +19°C° 0 mm 3 mps 761 mmHg 33%
    17:00 +17°C° 0 mm 3 mps 762 mmHg 42%
    18:00 +13°C° 0 mm 3 mps 762 mmHg 51%
    19:00 +13°C° 0 mm 3 mps 763 mmHg 53%
    20:00 +13°C° 0 mm 2 mps 763 mmHg 55%
    21:00 +12°C° 0 mm 2 mps 764 mmHg 57%
    22:00 +12°C° 0 mm 2 mps 764 mmHg 55%
    23:00 +10°C° 0 mm 2 mps 764 mmHg 54%

    27 Febrero, Jueves

    Tiempo Temperatura Precipitaciones Viento Presión Humedad
    00:00 +10°C° 0 mm 2 mps 765 mmHg 53%
    01:00 +10°C° 0 mm 2 mps 764 mmHg 53%
    02:00 +9°C° 0 mm 2 mps 764 mmHg 53%
    03:00 +9°C° 0 mm 2 mps 764 mmHg 53%
    04:00 +9°C° 0 mm 2 mps 764 mmHg 53%
    05:00 +9°C° 0 mm 2 mps 764 mmHg 53%
    06:00 +8°C° 0 mm 2 mps 764 mmHg 53%
    07:00 +10°C° 0 mm 2 mps 764 mmHg 49%
    08:00 +13°C° 0 mm 1 mps 765 mmHg 45%
    09:00 +14°C° 0 mm 1 mps 765 mmHg 41%
    10:00 +16°C° 0 mm 1 mps 764 mmHg 38%
    11:00 +18°C° 0 mm 2 mps 764 mmHg 34%
    12:00 +20°C° 0 mm 2 mps 764 mmHg 31%
    13:00 +20°C° 0 mm 3 mps 763 mmHg 32%
    14:00 +21°C° 0 mm 3 mps 763 mmHg 33%
    15:00 +21°C° 0 mm 4 mps 762 mmHg 35%
    16:00 +19°C° 0 mm 3 mps 762 mmHg 45%
    17:00 +17°C° 0 mm 3 mps 762 mmHg 54%
    18:00 +15°C° 0 mm 2 mps 762 mmHg 64%
    19:00 +14°C° 0 mm 2 mps 763 mmHg 63%
    20:00 +14°C° 0 mm 2 mps 763 mmHg 62%
    21:00 +13°C° 0 mm 2 mps 764 mmHg 61%
    22:00 +13°C° 0 mm 2 mps 763 mmHg 58%
    23:00 +13°C° 0 mm 2 mps 763 mmHg 55%

    28 Febrero, Viernes

    Tiempo Temperatura Precipitaciones Viento Presión Humedad
    00:00 +13°C° 0 mm 2 mps 763 mmHg 52%
    01:00 +13°C° 0 mm 2 mps 763 mmHg 52%
    02:00 +13°C° 0 mm 2 mps 763 mmHg 52%
    03:00 +13°C° 0 mm 2 mps 762 mmHg 51%
    04:00 +12°C° 0 mm 2 mps 762 mmHg 51%
    05:00 +12°C° 0 mm 2 mps 762 mmHg 51%
    06:00 +12°C° 0 mm 2 mps 762 mmHg 51%
    07:00 +14°C° 0 mm 2 mps 762 mmHg 47%
    08:00 +16°C° 0 mm 2 mps 762 mmHg 43%
    09:00 +19°C° 0 mm 1 mps 762 mmHg 39%
    10:00 +20°C° 0 mm 1 mps 762 mmHg 35%
    11:00 +22°C° 0 mm 1 mps 762 mmHg 31%
    12:00 +24°C° 0 mm 1 mps 761 mmHg 27%
    13:00 +24°C° 0 mm 2 mps 761 mmHg 29%
    14:00 +24°C° 0 mm 3 mps 760 mmHg 31%
    15:00 +24°C° 0 mm 3 mps 759 mmHg 32%
    16:00 +21°C° 0 mm 3 mps 759 mmHg 40%
    17:00 +18°C° 0 mm 2 mps 759 mmHg 47%
    18:00 +16°C° 0 mm 1 mps 759 mmHg 54%
    19:00 +16°C° 0 mm 1 mps 759 mmHg 51%
    20:00 +16°C° 0 mm 2 mps 759 mmHg 47%
    21:00 +16°C° 0 mm 2 mps 760 mmHg 44%
    22:00 +14°C° 0 mm 3 mps 760 mmHg 45%
    23:00 +14°C° 0 mm 4 mps 759 mmHg 47%

    29 Febrero, Sábado

    Tiempo Temperatura Precipitaciones Viento Presión Humedad
    00:00 +13°C° 0 mm 5 mps 759 mmHg 48%
    01:00 +13°C° 0 mm 5 mps 759 mmHg 50%
    02:00 +13°C° 0 mm 5 mps 759 mmHg 51%
    03:00 +13°C° 0 mm 5 mps 759 mmHg 53%
    04:00 +12°C° 0 mm 5 mps 759 mmHg 55%
    05:00 +12°C° 0 mm 5 mps 759 mmHg 58%
    06:00 +12°C° 0 mm 5 mps 759 mmHg 61%
    07:00 +13°C° 0 mm 4 mps 760 mmHg 56%
    08:00 +15°C° 0 mm 4 mps 760 mmHg 51%
    09:00 +18°C° 0 mm 4 mps 760 mmHg 47%
    10:00 +20°C° 0 mm 4 mps 760 mmHg 43%
    11:00 +22°C° 0 mm 4 mps 760 mmHg 38%
    12:00 +25°C° 0 mm 4 mps 760 mmHg 34%
    13:00 +25°C° 0 mm 5 mps 759 mmHg 34%
    14:00 +24°C° 0 mm 6 mps 759 mmHg 33%
    15:00 +24°C° 0 mm 7 mps 758 mmHg 33%
    16:00 +23°C° 0 mm 6 mps 758 mmHg 36%
    17:00 +21°C° 0 mm 6 mps 758 mmHg 39%
    18:00 +19°C° 0 mm 6 mps 758 mmHg 43%
    19:00 +17°C° 0 mm 6 mps 758 mmHg 46%
    20:00 +17°C° 0 mm 5 mps 758 mmHg 49%
    21:00 +16°C° 0 mm 5 mps 759 mmHg 53%
    22:00 +16°C° 0 mm 6 mps 758 mmHg 56%
    23:00 +16°C° 0 mm 7 mps 758 mmHg 59%
    Mostrar más